Wind_Speed
78 81 83 89 86 81 79 76 72 71 69 67 63 60 63 62 56 57 55 52 51 51 63 65 66 65 64 62 59 57 55 57 61 65 68 66 67 68 69 70 69 71 71 73
75 77 87 86 81 81 79 79 78 72 71 72 70 65 66 63 60 61 63 64 60 53 54 59 61 62 63 63 61 59 61 62 62 67 69 69 70 71 72 73 76 76 78 80
78 81 80 80 81 79 79 81 78 77 76 75 74 73 65 67 64 63 64 65 62 60 62 62 60 60 59 60 61 63 62 65 68 70 71 72 74 75 77 78 79 82 82 79
82 79 82 82 81 83 81 82 80 78 78 77 75 72 76 73 64 63 64 67 65 65 63 64 65 64 64 65 63 61 65 69 72 71 72 75 76 78 79 82 85 82 83 85
87 83 81 81 85 83 81 85 82 79 80 78 75 75 71 77 81 80 78 75 72 70 69 69 70 68 68 69 68 69 73 76 76 76 77 79 79 82 83 79 79 82 87 91
90 89 86 83 85 85 83 85 87 85 84 77 77 79 70 75 77 79 81 79 79 80 80 79 76 70 69 69 71 72 72 79 80 80 79 82 82 81 79 83 87 89 91 93
93 93 92 90 88 87 87 90 90 89 86 79 81 83 76 80 83 82 81 81 82 83 80 76 76 77 75 78 80 73 78 84 83 83 82 81 83 85 86 89 91 92 96 97
93 92 94 93 92 92 91 92 92 90 87 85 83 81 80 82 86 88 89 87 85 84 85 85 83 82 85 87 86 87 87 85 86 88 90 90 90 90 94 94 94 98 99 104
97 95 94 96 96 95 96 93 93 91 91 90 86 86 87 85 86 87 89 93 93 90 91 91 91 92 96 94 94 93 90 91 85 86 91 93 94 95 93 96 98 103 106 107
101 101 98 98 99 97 98 100 99 96 92 91 91 90 91 92 92 91 92 92 92 92 90 90 93 95 96 96 94 91 94 93 93 93 95 97 95 98 100 103 103 107 110 108
104 103 102 102 99 101 102 102 104 104 100 95 91 91 93 92 94 95 95 92 92 93 95 96 98 96 96 94 94 97 96 95 97 97 98 100 100 102 104 107 109 110 110 111
110 108 107 106 106 106 106 104 104 104 103 102 98 94 92 94 96 97 98 99 100 101 101 101 101 99 97 98 96 97 98 99 98 98 100 103 105 107 110 110 110 112 112 114
112 111 110 110 108 108 106 104 106 107 107 103 102 96 97 98 97 103 106 104 105 104 102 100 101 102 102 101 99 99 99 100 103 103 104 107 110 110 110 112 112 113 115 116
115 112 110 111 109 108 109 110 109 109 109 105 106 103 100 100 102 105 107 108 107 105 101 98 100 101 101 102 100 101 104 105 106 109 108 108 110 112 113 111 114 114 116 117
114 111 112 112 109 108 107 107 108 106 107 108 107 108 106 106 107 111 110 110 109 106 105 106 105 104 105 105 105 105 107 108 109 112 111 109 108 109 112 114 114 116 117 120
114 113 112 109 107 102 98 94 97 96 96 100 105 108 111 114 112 110 111 111 108 106 101 99 101 103 106 107 109 110 111 112 110 111 112 112 113 114 118 115 118 118 122 125
110 108 108 106 102 98 92 90 90 88 86 88 91 95 106 111 111 111 110 109 107 105 102 102 104 107 108 109 112 112 108 108 110 113 116 120 120 118 118 117 119 122 124 129
103 102 102 101 99 95 88 89 88 87 85 84 82 82 86 94 102 103 107 109 110 111 110 110 111 111 111 111 109 111 113 117 120 121 120 117 117 118 119 122 122 122 122 115
102 102 101 100 98 95 91 89 91 90 89 89 84 86 89 91 90 92 98 94 96 101 103 108 110 110 111 114 117 119 119 116 118 119 118 120 123 121 122 123 116 111 103 105
104 104 105 103 100 96 92 93 94 93 83 95 93 92 92 94 92 97 100 100 102 105 109 113 115 116 117 118 119 118 117 119 122 125 124 126 126 124 119 115 102 110 109 113
103 106 104 105 105 99 97 97 99 96 93 95 97 100 102 100 101 101 105 106 108 110 111 114 117 119 119 118 118 115 114 116 117 115 111 105 103 101 101 106 107 111 117 119
104 104 106 107 106 99 101 105 103 103 101 102 101 102 104 105 107 109 113 117 119 119 119 119 119 118 117 114 111 108 104 100 98 98 99 100 103 105 108 112 115 118 122 126
94 101 105 107 107 105 102 102 105 109 109 110 108 108 109 109 108 110 116 124 123 123 121 119 117 114 112 109 105 102 103 103 103 105 108 110 111 113 115 119 122 126 127 125
72 81 92 101 98 106 111 113 114 117 118 117 116 116 117 117 118 118 121 120 120 121 118 112 105 105 104 103 104 107 108 109 112 113 115 117 117 121 124 125 125 124 123 119
70 75 78 89 91 98 109 117 123 125 124 121 123 126 128 130 129 128 128 127 128 122 114 110 108 109 110 110 111 112 114 116 118 118 120 122 123 123 122 119 118 114 109 106
64 67 73 76 87 99 105 112 116 121 124 129 134 136 137 135 133 133 131 130 126 121 118 117 116 116 116 116 117 118 119 120 119 120 121 120 116 113 110 105 101 102 100 93
Wind_Direction
235 237 237 235 236 239 241 246 246 243 243 243 243 245 249 251 253 254 255 259 263 267 265 264 266 269 271 274 277 276 276 276 273 278 281 286 288 291 293 295 298 300 301 302
234 236 239 241 243 245 246 246 244 242 243 244 243 246 247 248 251 254 257 259 259 261 266 269 270 270 273 275 275 274 273 275 274 278 283 287 288 290 289 291 297 297 298 300
232 236 240 241 241 244 245 247 246 245 245 244 246 246 246 251 252 256 259 259 258 259 261 264 266 268 269 270 271 273 273 274 275 279 282 284 286 289 291 292 293 295 297 298
232 233 237 241 242 244 246 247 249 246 247 248 247 248 249 247 247 254 258 260 257 259 260 262 264 266 268 269 269 270 271 273 276 278 281 283 287 289 290 291 293 295 295 297
234 235 236 240 242 245 247 250 253 252 251 249 249 249 252 253 256 259 252 251 253 254 258 262 266 267 268 269 269 271 270 274 275 278 280 283 286 288 290 290 291 293 295 298
238 237 238 239 241 244 247 248 251 252 252 254 250 251 249 251 252 257 258 257 262 266 269 267 266 264 267 269 274 274 279 279 279 280 284 284 283 288 287 286 290 295 296 298
238 240 239 240 242 244 245 246 248 250 254 254 253 254 252 255 255 255 255 260 263 264 266 266 264 263 265 266 265 269 273 275 278 278 281 285 288 285 287 290 293 294 295 296
240 241 241 241 242 243 245 246 250 252 253 254 255 257 256 256 257 256 255 256 259 262 265 262 261 260 262 264 264 268 273 275 279 281 282 283 287 289 289 292 292 293 294 297
242 242 242 242 243 245 245 247 249 250 251 253 255 256 256 256 256 256 257 259 259 261 261 262 265 265 268 269 269 272 277 278 281 282 283 285 287 290 291 290 292 293 295 297
243 244 245 245 245 247 248 249 250 251 251 252 253 254 255 257 258 258 260 262 264 264 263 264 265 268 269 272 276 279 279 280 280 284 285 286 287 288 290 292 293 294 296 297
244 246 246 247 249 248 248 249 251 251 251 252 253 253 254 256 258 259 260 260 261 261 262 263 266 270 274 275 277 277 278 279 281 283 284 285 287 288 290 291 294 294 295 297
245 246 247 249 250 250 250 250 251 253 255 254 254 254 255 255 255 257 258 258 259 262 265 269 271 273 273 273 275 276 277 278 280 281 282 283 285 287 289 291 293 294 295 295
248 248 248 248 249 251 252 252 252 252 252 253 254 256 256 257 257 258 258 260 262 264 266 268 269 270 270 273 275 275 276 277 279 281 281 284 286 289 290 292 292 293 294 295
248 249 250 251 251 251 251 252 254 256 255 256 255 256 256 257 258 259 260 261 264 266 269 270 270 270 270 271 273 275 277 277 278 280 283 285 287 288 290 291 291 292 293 295
249 249 250 252 253 253 254 256 256 257 258 256 256 255 257 258 258 258 260 262 264 267 268 269 270 271 272 273 274 275 275 277 278 281 284 286 286 287 288 290 291 293 293 294
249 250 252 254 255 255 256 258 259 259 257 256 256 256 256 256 257 260 261 262 263 264 267 266 267 268 270 271 273 275 276 278 280 282 284 285 286 288 291 292 292 292 294 295
250 251 252 253 255 256 257 258 256 256 257 257 257 255 255 256 259 261 263 262 262 264 263 263 266 269 269 270 272 275 277 279 280 281 283 285 288 289 290 290 290 291 293 295
246 247 249 252 254 255 255 256 258 259 258 256 256 256 256 258 259 261 262 263 264 264 264 264 266 268 270 272 273 274 276 278 280 282 285 286 286 287 288 289 290 293 295 294
245 246 248 250 251 253 255 255 255 256 259 260 260 256 255 256 257 258 258 259 260 263 265 266 268 270 271 272 274 277 279 279 280 282 283 284 286 286 288 291 292 293 293 293
243 244 246 247 249 250 251 254 255 257 258 256 258 260 259 256 255 256 260 262 262 262 264 266 268 271 272 274 276 278 280 280 281 283 284 285 286 289 289 291 290 291 292 294
245 244 247 248 250 250 251 253 256 256 254 257 257 256 256 257 259 259 261 262 264 265 267 268 270 271 271 273 276 278 281 281 283 285 285 286 288 289 288 289 291 293 293 294
245 247 247 248 250 251 252 253 254 254 255 257 258 259 259 259 258 258 258 259 262 264 264 266 268 269 271 273 275 278 281 283 285 286 286 286 288 290 291 291 292 293 294 295
250 250 249 251 251 251 252 255 256 258 258 257 256 258 260 261 261 262 261 260 262 263 264 267 271 275 276 276 278 279 281 282 284 285 286 288 290 290 291 292 293 294 295 295
252 252 252 252 252 252 252 252 252 253 255 258 258 257 258 259 258 260 262 261 261 263 264 266 271 274 276 277 279 280 282 284 284 285 287 289 290 291 293 293 294 294 294 293
261 260 258 254 250 252 250 250 251 252 253 254 256 257 258 257 257 258 259 261 263 267 272 275 276 277 278 279 280 281 281 283 285 287 288 290 290 290 291 292 291 291 292 291
264 259 256 252 252 252 250 251 252 253 254 254 254 256 259 261 262 262 264 267 270 272 274 275 277 277 278 278 279 280 282 283 284 286 288 289 289 289 289 289 289 289 291 292
Height
10668 10677 10681 10680 10692 10704 10711 10718 10721 10724 10730 10737 10742 10746 10744 10747 10752 10750 10750 10753 10759 10765 10761 10758 10757 10757 10758 10758 10758 10755 10755 10752 10750 10749 10749 10750 10746 10742 10740 10735 10731 10728 10724 10721
10657 10664 10662 10675 10686 10693 10698 10704 10707 10711 10718 10725 10728 10735 10733 10736 10739 10739 10740 10744 10747 10751 10748 10746 10747 10747 10746 10746 10746 10745 10744 10741 10737 10737 10737 10736 10734 10731 10726 10723 10719 10715 10711 10707
10644 10648 10656 10665 10673 10680 10685 10690 10694 10701 10706 10711 10717 10725 10724 10726 10729 10728 10729 10729 10734 10735 10734 10734 10734 10734 10735 10735 10733 10732 10732 10727 10725 10726 10725 10722 10719 10717 10713 10709 10705 10702 10697 10693
10633 10640 10646 10652 10661 10667 10671 10674 10682 10687 10692 10701 10705 10715 10713 10712 10715 10718 10716 10715 10718 10721 10720 10720 10720 10721 10721 10721 10720 10719 10716 10712 10712 10713 10712 10709 10706 10703 10698 10695 10690 10686 10681 10676
10616 10626 10634 10644 10644 10652 10659 10660 10667 10675 10680 10687 10695 10698 10705 10702 10703 10704 10701 10699 10699 10703 10704 10706 10707 10707 10708 10706 10705 10704 10702 10700 10699 10699 10698 10695 10692 10688 10683 10679 10674 10669 10663 10657
10607 10613 10621 10627 10630 10637 10645 10647 10649 10656 10663 10676 10680 10681 10701 10687 10689 10690 10688 10687 10689 10689 10690 10692 10691 10692 10691 10690 10690 10690 10688 10685 10685 10685 10683 10680 10676 10672 10667 10662 10657 10651 10645 10639
10586 10594 10603 10610 10615 10624 10631 10629 10631 10639 10649 10664 10664 10665 10686 10677 10674 10673 10673 10674 10674 10674 10675 10675 10675 10676 10675 10673 10671 10672 10671 10671 10671 10668 10666 10663 10659 10654 10649 10644 10639 10633 10625 10619
10573 10581 10587 10594 10597 10604 10608 10614 10622 10629 10638 10645 10650 10657 10663 10662 10658 10657 10656 10657 10657 10658 10660 10660 10659 10657 10654 10654 10654 10656 10656 10656 10655 10652 10649 10645 10639 10634 10629 10623 10617 10611 10604 10598
10550 10560 10567 10575 10579 10587 10596 10603 10602 10612 10621 10628 10635 10643 10642 10643 10642 10643 10642 10638 10639 10643 10643 10641 10641 10639 10637 10638 10641 10643 10643 10640 10637 10633 10629 10624 10618 10614 10607 10601 10595 10588 10582 10576
10531 10540 10551 10556 10564 10574 10582 10580 10588 10597 10603 10611 10618 10623 10621 10624 10627 10628 10623 10623 10625 10624 10622 10621 10618 10618 10620 10624 10627 10627 10625 10623 10618 10613 10609 10604 10597 10592 10585 10579 10573 10566 10560 10554
10517 10523 10533 10539 10552 10555 10557 10564 10568 10572 10582 10593 10600 10603 10607 10608 10608 10608 10607 10608 10606 10601 10600 10600 10601 10604 10609 10610 10608 10606 10603 10600 10598 10593 10587 10581 10576 10570 10565 10558 10552 10545 10537 10531
10492 10504 10514 10523 10529 10535 10540 10547 10551 10558 10568 10571 10576 10585 10590 10590 10590 10589 10588 10586 10583 10581 10581 10584 10589 10590 10590 10588 10587 10587 10584 10581 10576 10571 10565 10560 10554 10548 10543 10537 10529 10521 10513 10506
10474 10483 10492 10501 10511 10519 10526 10528 10529 10534 10539 10552 10553 10568 10568 10570 10570 10566 10564 10563 10561 10564 10569 10571 10571 10569 10569 10568 10567 10564 10561 10558 10554 10549 10544 10538 10531 10525 10518 10513 10507 10498 10489 10480
10452 10465 10475 10482 10491 10496 10503 10507 10507 10513 10526 10537 10538 10541 10545 10546 10547 10543 10539 10538 10542 10547 10552 10551 10549 10547 10545 10545 10545 10543 10539 10535 10530 10525 10520 10515 10509 10503 10496 10488 10481 10473 10464 10455
10435 10444 10451 10457 10470 10476 10483 10487 10489 10498 10503 10508 10515 10516 10519 10521 10518 10512 10518 10521 10525 10530 10528 10526 10526 10525 10523 10523 10521 10518 10515 10511 10506 10502 10497 10491 10486 10481 10475 10467 10458 10449 10439 10430
10411 10425 10432 10440 10449 10458 10464 10469 10473 10479 10480 10484 10486 10494 10490 10486 10490 10495 10494 10501 10506 10504 10504 10504 10504 10501 10500 10499 10495 10493 10490 10487 10483 10477 10472 10467 10463 10458 10451 10442 10434 10424 10415 10405
10398 10408 10413 10423 10429 10437 10451 10455 10454 10455 10458 10458 10465 10467 10463 10470 10469 10474 10480 10479 10479 10482 10482 10482 10481 10478 10475 10473 10471 10467 10466 10463 10458 10453 10450 10444 10437 10432 10426 10417 10407 10398 10389 10379
10382 10387 10393 10405 10412 10425 10433 10431 10433 10435 10437 10438 10443 10444 10442 10441 10446 10453 10449 10451 10456 10458 10457 10457 10456 10452 10450 10447 10444 10443 10441 10437 10434 10428 10424 10419 10413 10407 10400 10391 10381 10371 10361 10351
10366 10371 10378 10384 10393 10404 10415 10416 10409 10412 10417 10419 10422 10418 10420 10424 10433 10432 10420 10431 10431 10431 10432 10429 10427 10425 10422 10419 10417 10414 10414 10411 10409 10406 10401 10395 10389 10380 10372 10364 10355 10346 10335 10327
10343 10347 10353 10364 10373 10386 10394 10394 10389 10394 10415 10387 10393 10398 10397 10402 10411 10406 10403 10409 10408 10405 10402 10399 10398 10396 10394 10394 10392 10390 10388 10384 10380 10378 10371 10364 10356 10350 10344 10338 10329 10322 10311 10301
10323 10330 10336 10342 10352 10370 10374 10375 10367 10377 10374 10372 10373 10371 10372 10378 10379 10386 10380 10379 10376 10376 10374 10372 10371 10370 10368 10368 10367 10366 10363 10359 10355 10350 10342 10335 10328 10323 10319 10314 10304 10295 10285 10274
10303 10307 10319 10325 10332 10351 10349 10345 10352 10348 10348 10347 10348 10346 10348 10353 10355 10357 10353 10346 10344 10341 10338 10338 10337 10338 10339 10341 10342 10342 10339 10335 10330 10324 10317 10312 10306 10301 10294 10286 10277 10267 10256 10245
10285 10291 10294 10303 10319 10326 10334 10329 10323 10318 10322 10320 10323 10323 10323 10324 10325 10322 10320 10312 10312 10311 10311 10314 10321 10324 10321 10319 10321 10319 10315 10313 10307 10299 10293 10288 10281 10274 10267 10257 10247 10236 10226 10215
10268 10271 10272 10278 10305 10295 10293 10298 10296 10284 10281 10291 10294 10293 10290 10291 10289 10286 10277 10276 10275 10276 10280 10293 10303 10300 10297 10297 10296 10293 10291 10285 10279 10274 10269 10261 10253 10244 10235 10226 10215 10205 10194 10183
10243 10245 10252 10249 10265 10254 10252 10252 10252 10254 10262 10266 10259 10253 10249 10242 10247 10247 10245 10246 10244 10260 10274 10279 10280 10276 10273 10273 10271 10267 10262 10256 10253 10247 10239 10231 10224 10214 10205 10197 10187 10177 10165 10155
10220 10220 10217 10225 10221 10215 10224 10220 10222 10226 10230 10226 10218 10213 10212 10216 10217 10218 10225 10230 10240 10247 10250 10252 10251 10249 10248 10246 10241 10236 10232 10228 10223 10217 10210 10202 10195 10186 10179 10169 10160 10150 10141 10130